Back to catalog

CZ-6A R/B

AlivePO
NORAD 63921·ROCKET BODY·🇨🇳 China

Launched May 11, 2025 from Taiyuan Satellite Launch Center

Loading…

Next Passes (next 24 hours)

TLE

FreshSource: Space-Track

Epoch: Sep 14, 2026, 15:17 UTC

1 63921U 25096D   26257.63698797  .00000240  00000-0  91157-4 0  9993
2 63921  85.9951 142.7512 0014921 119.4420 240.8262 14.26642744 69874

Track CZ-6A R/B in real time with AllMySat

Download on the App Store